Weather History for Avoca, PA

Change the Weather History Date:

Monday, March 4, 2013

  Actual Average Record
Temperature  
Mean Temperature -2 °C 1 °C  
Max Temperature 2 °C 6 °C 20 °C (1974)
Min Temperature -5 °C -4 °C -17 °C (1943)
Degree Days  
Heating Degree Days 36 32  
Month to date heating degree days 144 130  
Since 1 July heating degree days 4368 4736  
Cooling Degree Days 0 0  
Month to date cooling degree days 0 0  
Year to date cooling degree days 0 0  
Moisture  
Dew Point -9 °C    
Average Humidity 58    
Maximum Humidity 69    
Minimum Humidity 47    
Precipitation  
Precipitation T mm 1.78 mm 2.77 mm (1917)
Month to date precipitation T 0.28  
Year to date precipitation 3.33 4.68  
Sea Level Pressure  
Sea Level Pressure 1012 hPa    
Wind  
Wind Speed 25 km/h (NW)    
Max Wind Speed 40 km/h    
Max Gust Speed 52 km/h    
Visibility 16 kilometers    
Events      
T = Trace of Precipitation, MM = Missing Value Source: NWS Daily Summary

Daily Weather History Graph

Daily Weather History Graph

Search for Another Location

Airport:

Trip Planner

Search our weather history database for the weather conditions in past years. The results will help you decide how hot, cold, wet, or windy it might be!

Date:

Astronomy

Mar. 04, 2013 Rise Set
Actual Time 6:32 AM EST 5:57 PM EST
Civil Twilight 6:04 AM EST 6:25 PM EST
Nautical Twilight 5:32 AM EST 6:57 PM EST
Astronomical Twilight 5:00 AM EST 7:29 PM EST
Moon 12:41 AM EST (3/4) 10:34 AM EST (3/4)
Length of Visible Light 12h 20m
Length of Day
11h 25m
Waning Gibbous, 52% of the Moon is Illuminated
Mar 4
Waning Gibbous
Mar 4
Last Quarter
Mar 11
New
Mar 19
First Quarter
Mar 27
Full

Hourly Weather History & Observations

Time (EST) Temp. Windchill Dew Point Humidity Pressure Visibility Wind Dir Wind Speed Gust Speed Precip Events Conditions
12:54 AM -4.4 °C -10.5 °C -9.4 °C 69% 1010.5 hPa 16.1 km NW 18.5 km/h / 5.1 m/s 35.2 km/h / 9.8 m/s N/A   Overcast
1:54 AM -4.4 °C -11.4 °C -9.4 °C 69% 1010.5 hPa 16.1 km NW 24.1 km/h / 6.7 m/s 37.0 km/h / 10.3 m/s N/A   Overcast
2:54 AM -4.4 °C -11.1 °C -9.4 °C 69% 1010.3 hPa 16.1 km NW 22.2 km/h / 6.2 m/s - N/A   Overcast
3:54 AM -4.4 °C -11.1 °C -8.9 °C 71% 1010.5 hPa 16.1 km NW 22.2 km/h / 6.2 m/s 37.0 km/h / 10.3 m/s N/A   Overcast
4:54 AM -4.4 °C -10.5 °C -9.4 °C 69% 1011.0 hPa 16.1 km NW 18.5 km/h / 5.1 m/s 35.2 km/h / 9.8 m/s N/A   Overcast
5:54 AM -4.4 °C -11.7 °C -10.0 °C 65% 1011.6 hPa 16.1 km NW 25.9 km/h / 7.2 m/s 50.0 km/h / 13.9 m/s N/A   Overcast
6:54 AM -4.4 °C -11.7 °C -10.0 °C 65% 1012.1 hPa 14.5 km West 25.9 km/h / 7.2 m/s - N/A   Overcast
7:54 AM -4.4 °C -11.4 °C -11.1 °C 60% 1012.6 hPa 16.1 km NNW 24.1 km/h / 6.7 m/s 42.6 km/h / 11.8 m/s 0.0 mm   Overcast
8:08 AM -4.0 °C -10.3 °C -11.0 °C 59% 1011.4 hPa 16.1 km NW 20.4 km/h / 5.7 m/s 40.7 km/h / 11.3 m/s N/A   Overcast
8:31 AM -4.0 °C -10.6 °C -11.0 °C 59% 1011.4 hPa 16.1 km West 22.2 km/h / 6.2 m/s 35.2 km/h / 9.8 m/s N/A   Overcast
8:54 AM -4.4 °C -10.5 °C -11.1 °C 60% 1012.6 hPa 16.1 km WNW 18.5 km/h / 5.1 m/s 33.3 km/h / 9.3 m/s N/A   Overcast
9:54 AM -3.9 °C -11.0 °C -10.6 °C 60% 1012.5 hPa 16.1 km WNW 25.9 km/h / 7.2 m/s 35.2 km/h / 9.8 m/s N/A   Overcast
10:19 AM -3.0 °C -9.9 °C -11.0 °C 55% 1011.4 hPa 16.1 km WNW 25.9 km/h / 7.2 m/s - N/A   Overcast
10:54 AM -3.3 °C -9.4 °C -10.0 °C 60% 1012.6 hPa 16.1 km NW 20.4 km/h / 5.7 m/s 38.9 km/h / 10.8 m/s N/A   Overcast
11:27 AM -2.0 °C -9.0 °C -9.0 °C 59% 1011.4 hPa 16.1 km NW 29.6 km/h / 8.2 m/s 38.9 km/h / 10.8 m/s N/A   Overcast
11:54 AM -1.7 °C -8.2 °C -9.4 °C 56% 1012.3 hPa 16.1 km NW 25.9 km/h / 7.2 m/s 33.3 km/h / 9.3 m/s N/A   Overcast
12:54 PM 0.6 °C -5.0 °C -8.9 °C 50% 1011.4 hPa 16.1 km WNW 24.1 km/h / 6.7 m/s 38.9 km/h / 10.8 m/s N/A   Overcast
1:54 PM 1.1 °C -5.0 °C -8.9 °C 48% 1011.2 hPa 16.1 km NW 29.6 km/h / 8.2 m/s 42.6 km/h / 11.8 m/s N/A   Partly Cloudy
2:54 PM 0.6 °C -6.3 °C -8.9 °C 50% 1011.3 hPa 16.1 km WNW 37.0 km/h / 10.3 m/s 44.4 km/h / 12.3 m/s N/A   Overcast
3:54 PM 0.6 °C -6.2 °C -8.9 °C 50% 1011.6 hPa 16.1 km NW 35.2 km/h / 9.8 m/s 46.3 km/h / 12.9 m/s N/A   Overcast
4:54 PM 0.0 °C -6.4 °C -8.3 °C 54% 1012.2 hPa 16.1 km WNW 29.6 km/h / 8.2 m/s 37.0 km/h / 10.3 m/s N/A   Overcast
5:54 PM -0.6 °C -7.0 °C -7.8 °C 59% 1012.9 hPa 16.1 km NW 27.8 km/h / 7.7 m/s 35.2 km/h / 9.8 m/s N/A   Overcast
6:54 PM -0.6 °C -7.0 °C -7.8 °C 59% 1013.4 hPa 16.1 km WNW 27.8 km/h / 7.7 m/s 42.6 km/h / 11.8 m/s N/A   Overcast
7:54 PM -1.1 °C -7.8 °C -7.8 °C 61% 1014.0 hPa 16.1 km WNW 29.6 km/h / 8.2 m/s - N/A   Overcast
8:54 PM -1.1 °C -7.4 °C -7.2 °C 64% 1014.7 hPa 16.1 km WNW 25.9 km/h / 7.2 m/s - N/A   Overcast
9:54 PM -1.7 °C -7.7 °C -7.2 °C 67% 1014.8 hPa 16.1 km NW 22.2 km/h / 6.2 m/s - N/A   Overcast
10:54 PM -1.7 °C -7.9 °C -7.2 °C 67% 1015.1 hPa 16.1 km WNW 24.1 km/h / 6.7 m/s - N/A   Overcast
11:54 PM -1.7 °C -8.2 °C -6.7 °C 69% 1015.0 hPa 16.1 km NW 25.9 km/h / 7.2 m/s 40.7 km/h / 11.3 m/s N/A   Overcast